Find Starlink 34334

NORAD ID: 64273 Int'l Des: 2025-120 Owner: SPXS Country: US Constellation: starlink operational
LEOCIRCULAR

現在のビュー

3D地球を読み込み中...

About Starlink 34334

Starlink 34334 (NORAD 64273) is a starlink constellation satellite (v2 mini) launched Jun 4, 2025 by SPXS of US. It operates in LEO, CIRCULAR orbit with a mass of 575.00 kg.

次回通過

Passes for default location (London). Set your location on the main map for personalized predictions.

高度履歴

Loading altitude history...

軌道要素

1 64273U 25120T 26265.36563379 .00014910 00000-0 45156-3 0 9994
2 64273 53.1571 280.6356 0002065 89.7679 270.3561 15.34398580 74062
Epoch: Sep 22, 2026 • Age: 22 hours

現在のステータス

高度 462.4 km
遠地点 / 近地点 N/A
速度 7.64 km/s
衛星直下点 17.39°N, 173.61°W
打ち上げ日 Jun 4, 2025
運用期間 1.3 years
タイプ internet

技術仕様

分類 Payload
質量 575.00 kg
乾燥質量 530.00 kg
長さ 0.30 m
スパン 29.00 m
形状 ? Box + pan
製造者 SPXS
バスタイプ Starlink V2MO
フェーズステータス In Orbit
所有者/国 SPXS/US

Most Searched